weather.gov     
National Weather Service

Regional Weather Roundup
NWS Homepage
This page is being discontinued on March 12, 2014.
The same data is available at this site. Please update your bookmarks.
Thank you, and we apologize for the inconvenience.
Please send an email to SR-SRH.Webmaster@noaa.gov with any concerns.


Current Version
Previous Version:    01  02  03  04  05  06  07  08  09  10  11  12  13  14  15  16  17  18  19  20  21  22  23  24  25  26  27  28  29  30  
   31  32  33  34  35  36  37  38  39  40  41  42  43  44  45  46  47  48  49  50  51  52  53  54  
[Printable]
180
ASUS46 KSGX 221110
RWRSGX

SAN DIEGO HOURLY WEATHER ROUNDUP
NATIONAL WEATHER SERVICE SAN DIEGO CA
300 AM PST MON DEC 22 2014

NOTE: "FAIR" INDICATES FEW OR NO CLOUDS BELOW 12,000 FEET WITH NO
SIGNIFICANT WEATHER AND/OR OBSTRUCTIONS TO VISIBILITY.

CAZ042-043-060-061-PZZ750-775-221200-

GREATER SAN DIEGO AREA

CITY           SKY/WX    TMP DP  RH WIND       PRES   REMARKS
LINDBERGH FLD  PTCLDY    56  52  86 CALM      30.04F
POINT LOMA       N/A     55  53  92 N3          N/A
CHULA VISTA      N/A     51  50  96 W1        29.97F
IMPERIAL BEACH CLEAR     54  52  93 E7        30.03F
BROWN FIELD    CLEAR     51  49  92 E5        30.02F
MIRAMAR MCAS   PTCLDY    52  48  86 CALM      30.02F
MONTGOMERY FLD CLEAR     53  50  89 CALM      30.03F

$$

NORTH SAN DIEGO COUNTY

CITY           SKY/WX    TMP DP  RH WIND       PRES   REMARKS
CAMP PENDLETON FOG       45  43  93 CALM      30.03F VSB 1/2
OCEANSIDE AP   FOG       47  45  93 CALM      30.02F VSB 1/2
VISTA            N/A     49  46  87 CALM      30.01F
CARLSBAD       CLEAR     53  50  89 NE3       30.01F
FALLBROOK        N/A     52  52 100 CALM      30.04F
SAN MARCOS       N/A     52  48  88 CALM      30.01F
POWAY            N/A     47  44  91 CALM      30.05F

$$

EAST SAN DIEGO COUNTY

CITY           SKY/WX    TMP DP  RH WIND       PRES   REMARKS
RAMONA         PTCLDY    41  40  96 CALM      30.04F
SANTEE LAKES     N/A     49  47  94 CALM      30.05F
LA MESA          N/A     53  50  90 E3        29.98F
DESCANSO N       N/A     47  37  69 E3        29.98S
MT. LAGUNA OBS   N/A     54  28  36 N17       29.74F
CAMPO            N/A     42  37  82 CALM      30.03F

$$

ORANGE COUNTY AND THE LOS ANGELES BASIN

CITY           SKY/WX    TMP DP  RH WIND       PRES   REMARKS
JOHN WAYNE AP  CLEAR     56  51  84 CALM      30.03S HAZE
LAKE FOREST FR   N/A     54  48  82 CALM      29.94S
HUNTINGTON BCH   N/A     51  50  96 CALM      30.06R
LOS ALAMITOS   FAIR      51  51 100 W2        30.04S FOG
FULLERTON      CLEAR     51  48  89 CALM      30.03S FOG
LONG BEACH     PTCLDY    52  52 100 CALM      30.04S FOG
L.A. AP        PTCLDY    52  51  97 SE5       30.04R
L.A. DOWNTOWN  CLEAR     52  48  86 CALM      30.04R FOG

$$

THE INLAND EMPIRE

CITY           SKY/WX    TMP DP  RH WIND       PRES   REMARKS
CORONA         CLEAR     44  44 100 CALM      30.05S FOG
CHINO          CLEAR     46  45  96 N3        30.05F FOG
ONTARIO        PTCLDY    50  45  83 N5        30.04S HAZE
RIVERSIDE AP   CLEAR     50  45  83 E5        30.04F
RIV CYN CREST    N/A     53  53  99 S5          N/A
MORENO VALLEY    N/A     53  48  86 CALM      29.25F
MARCH ARB      CLEAR     43  43 100 CALM      30.05F
HORSETHIEF CYN   N/A     52  41  66 CALM      30.06S
PERRIS           N/A     49  47  95 CALM      30.06F
MENIFEE          N/A     46  46  98 CALM      30.12F
HEMET EAST       N/A     53  37  55 CALM      30.05F
FRENCH VALLEY  FAIR      46  45  93 N3        30.05F
TEMECULA         N/A     48  47  96 CALM      30.02S

$$

SAN BERNARDINO AND RIVERSIDE COUNTY MOUNTAINS

CITY           SKY/WX    TMP DP  RH WIND       PRES   REMARKS
BIG BEAR AP    CLEAR     30  27  86 CALM      30.27S
ANGELUS OAKS     N/A     53  25  34 CALM      30.03F

$$

SOUTHERN DESERT INCLUDING THE COACHELLA VALLEY

CITY           SKY/WX    TMP DP  RH WIND       PRES   REMARKS
PALM SPRINGS   CLEAR     51  46  83 CALM      30.04S
THOUSAND PALMS   N/A     50  44  79 CALM      29.99S
THERMAL        CLEAR     45  40  82 N3        30.01F
BLYTHE         PTCLDY    49  46  90 E6        30.04R
IMPERIAL AP    CLEAR     48  44  86 SW3       30.01F
EL CENTRO NAS  CLEAR     47  42  83 SW7       30.02S
YUMA AZ        MOCLDY    52  41  66 CALM      30.02S

$$

UPPER DESERT

CITY           SKY/WX    TMP DP  RH WIND       PRES   REMARKS
VICTORVILLE AP   N/A     45  43  93 CALM      30.18R
HESPERIA         N/A     43  41  93 W2        30.31F
PALMDALE       CLEAR     43  41  93 SW5       30.19R
LANCASTER      CLEAR     50  44  80 NW6       30.18R
EDWARDS AFB    FOG       37  37 100 W3        30.17R VSB 1/2
DAGGETT        CLEAR     46  42  86 W17       30.15S
29 PALMS N     CLEAR     51  44  77 N6        30.16S
NEEDLES        PTCLDY    48  40  73 W3        30.05F

$$

REGIONAL REPORTS

CITY           SKY/WX    TMP DP  RH WIND       PRES   REMARKS
SANTA BARBARA  CLEAR     63  45  51 NE6       30.01F
SANDBERG       PTCLDY    49  43  80 N15G32    30.22R
MT. WILSON       N/A     59  14  17 E2          N/A
LAS VEGAS NV   PTCLDY    46  39  76 SW8       30.04F
PHOENIX AZ     MOCLDY    50  43  77 E7        30.00F
TIJUANA        PTCLDY    52  48  87 CALM      30.06S
ENSENADA NW      N/A     57  32  38 CALM      30.01S

$$

OFFSHORE ISLANDS

CITY           SKY/WX    TMP DP  RH WIND       PRES   REMARKS
CATALINA ARPT  CLEAR     59  46  62 N8        30.07R
SAN NICOLAS IS CLEAR    N/A N/A N/A W12       30.04S

$$

MARINE AND OFFSHORE BUOY REPORTS

STATION/POSITION SKY/WX   TEMP    WIND        PRES    SWELL
                          AIR SEA DIR/SP/G            HT/PER/DIR
                          (F)     (DEG/KT/KT) (MB)    (FT/S/D)
TANNER BANKS               64 64  340/ 14/ 17 1016.8S  11/310/13
S CLEMENTE BASIN           62 65   30/  6/  6 1016.7F   7/290/15
SAN NICOLAS IS.               62                N/A     8/300/13
SO. S. ROSA ISLA           63 62  330/ 21/ 25 1016.5F  10/14
W. S. BARBARA CH           65 62  340/ 25/ 29 1016.8F   8/300/15
S. MONICA BASIN            63 63  250/  4/  8 1017.4R   5/230/15
S PEDRO CHANNEL               64                N/A     3/270/14
DANA POINT                    64                N/A     3/270/15
CMP PENDLETON NS              64                N/A     2/230/15
OCEANSIDE OFFSHR              65                N/A     2/260/11
TORREY PINES OTR              65                N/A     3/270/15
LA JOLLA 1                 58 63  140/  3/  4 1016.9F
MISSION BAY BUOY              65                N/A     5/280/13
SAN DIEGO BAY                 64              1017.4F
POINT LOMA SOUTH              65                N/A     3/270/15

$$





U.S. Dept. of Commerce
NOAA National Weather Service
1325 East West Highway
Silver Spring, MD 20910
E-mail: w-nws.webmaster@noaa.gov
Page last modified: May 16, 2007
NATIONAL WEATHER SERVICE: for Safety, for Work, for Fun - FOR LIFE